Weather History for Du Bois, PA

Change the Weather History Date:

Friday, December 9, 2011

  Actual Average Record
Temperature  
Mean Temperature 33 °F 30 °F  
Max Temperature 39 °F 37 °F 60 °F (1966)
Min Temperature 27 °F 23 °F -1 °F (1977)
Degree Days  
Heating Degree Days 32 35  
Month to date heating degree days 257 302  
Since 1 July heating degree days 1178 1819  
Cooling Degree Days 0 0  
Month to date cooling degree days 0 0  
Year to date cooling degree days 0 362  
Moisture  
Dew Point 26 °F    
Average Humidity 73    
Maximum Humidity 92    
Minimum Humidity 54    
Precipitation  
Precipitation T in 0.11 in 1.22 in (1973)
Month to date precipitation 0.18 0.96  
Sea Level Pressure  
Sea Level Pressure 30.22 in    
Wind  
Wind Speed 6 mph (WSW)    
Max Wind Speed 18 mph    
Max Gust Speed 23 mph    
Visibility 9 miles    
Events Snow    
T = Trace of Precipitation, MM = Missing Value Source: NWS Daily Summary

Daily Weather History Graph

Daily Weather History Graph

Search for Another Location

Airport:

Trip Planner

Search our weather history database for the weather conditions in past years. The results will help you decide how hot, cold, wet, or windy it might be!

Date:

Astronomy

Dec. 09, 2011 Rise Set
Actual Time 7:29 AM EST 4:46 PM EST
Civil Twilight 6:57 AM EST 5:17 PM EST
Nautical Twilight 6:23 AM EST 5:52 PM EST
Astronomical Twilight 5:49 AM EST 6:25 PM EST
Moon 4:08 PM EST (12/9) 6:34 AM EST (12/9)
Length of Visible Light 10h 19m
Length of Day
9h 17m
Waxing Gibbous, 99% of the Moon is Illuminated
Dec 9
Waxing Gibbous
Dec 10
Full
Dec 17
Last Quarter
Dec 24
New
Jan 1
First Quarter

Hourly Weather History & Observations

Time (EST) Temp. Windchill Dew Point Humidity Pressure Visibility Wind Dir Wind Speed Gust Speed Precip Events Conditions
12:56 AM 28.0 °F 22.8 °F 25.0 °F 88% 30.26 in 10.0 mi SW 4.6 mph - N/A   Overcast
1:56 AM 28.0 °F - 24.1 °F 85% 30.25 in 10.0 mi Calm Calm - N/A   Overcast
2:56 AM 28.0 °F 24.2 °F 24.1 °F 85% 30.24 in 10.0 mi South 3.5 mph - N/A   Overcast
3:56 AM 28.0 °F - 25.0 °F 88% 30.23 in 10.0 mi Calm Calm - N/A   Overcast
4:56 AM 28.0 °F - 25.0 °F 88% 30.22 in 10.0 mi Calm Calm - N/A   Partly Cloudy
5:56 AM 28.0 °F - 24.1 °F 85% 30.21 in 10.0 mi Calm Calm - N/A   Partly Cloudy
6:56 AM 28.0 °F 24.2 °F 24.1 °F 85% 30.22 in 10.0 mi SSE 3.5 mph - N/A   Clear
7:56 AM 28.0 °F - 23.0 °F 81% 30.23 in 10.0 mi Calm Calm - N/A   Scattered Clouds
8:56 AM 30.0 °F 26.5 °F 25.0 °F 82% 30.24 in 10.0 mi SSW 3.5 mph - N/A   Mostly Cloudy
9:56 AM 30.9 °F 27.5 °F 25.0 °F 79% 30.24 in 10.0 mi Variable 3.5 mph - N/A   Scattered Clouds
10:56 AM 32.0 °F 24.8 °F 25.0 °F 75% 30.23 in 10.0 mi SW 8.1 mph - N/A   Overcast
11:56 AM 36.0 °F 29.0 °F 26.1 °F 67% 30.20 in 10.0 mi SW 9.2 mph - N/A   Clear
12:56 PM 36.0 °F 28.0 °F 26.1 °F 67% 30.19 in 10.0 mi SW 11.5 mph - N/A   Mostly Cloudy
1:56 PM 37.0 °F 28.5 °F 25.0 °F 62% 30.17 in 10.0 mi WSW 13.8 mph - N/A   Partly Cloudy
3:56 PM 37.0 °F 30.4 °F 23.0 °F 57% 30.17 in 10.0 mi WSW 9.2 mph - N/A   Overcast
4:56 PM 36.0 °F 27.1 °F 23.0 °F 59% 30.19 in 10.0 mi WSW 13.8 mph 20.7 mph N/A   Overcast
5:56 PM 34.0 °F 26.0 °F 25.0 °F 70% 30.21 in 10.0 mi WSW 10.4 mph - N/A   Overcast
6:56 PM 34.0 °F 28.0 °F 25.0 °F 70% 30.23 in 10.0 mi West 6.9 mph - N/A   Overcast
7:56 PM 32.0 °F 26.4 °F 27.0 °F 82% 30.25 in 10.0 mi West 5.8 mph - 0.00 in   Overcast
8:56 PM 30.9 °F 26.2 °F 28.9 °F 92% 30.25 in 4.0 mi SW 4.6 mph - 0.00 in Snow Light Snow
9:49 PM 30.2 °F 25.4 °F 28.4 °F 93% 30.19 in 5.0 mi SW 4.6 mph - 0.00 in Snow Light Snow
9:56 PM 30.9 °F 27.5 °F 28.9 °F 92% 30.25 in 6.0 mi WSW 3.5 mph - 0.00 in   Overcast
10:10 PM 30.2 °F 25.4 °F 28.4 °F 93% 30.19 in 8.0 mi WSW 4.6 mph - N/A   Overcast
10:45 PM 30.2 °F 23.4 °F 28.4 °F 93% 30.19 in 10.0 mi West 6.9 mph - N/A   Overcast
10:56 PM 30.9 °F 26.2 °F 28.9 °F 92% 30.25 in 10.0 mi West 4.6 mph - N/A   Overcast
11:22 PM 30.2 °F 23.4 °F 28.4 °F 93% 30.19 in 10.0 mi West 6.9 mph - N/A   Overcast
11:30 PM 30.2 °F 22.6 °F 28.4 °F 93% 30.19 in 10.0 mi West 8.1 mph - N/A   Overcast
11:56 PM 30.9 °F 23.5 °F 28.9 °F 92% 30.25 in 9.0 mi West 8.1 mph - N/A   Overcast